FW5431 Weather Reports


Display with metric or nautical units.
time (UTC)temp
F
wind
direction
speed
MPH
gust
MPH
rain 1hr
in
rain 24hr
in
rain mn
in
humidity
%
barometer
mb
20260902130100 68 332 1.0 6.0 0.00 0.00 0.00 100 1019.8
20260902124557 68 204 2.0 4.0 0.00 0.00 0.00 100 1019.6
20260902123102 67 44 0.0 4.0 0.00 0.00 0.00 100 1019.6
20260902121607 66 67 1.0 3.0 0.00 0.00 0.00 100 1019.5
20260902120057 65 304 1.0 3.0 0.00 0.00 0.00 100 1019.4
20260902114557 65 1 0.0 3.0 0.00 0.00 0.00 100 1019.3
20260902113104 64 311 1.0 6.0 0.00 0.00 0.00 100 1019.1
20260902111559 63 93 1.0 4.0 0.00 0.00 0.00 100 1019.0
20260902110059 62 67 2.0 5.0 0.00 0.00 0.00 100 1018.8
20260902104610 62 49 2.0 4.0 0.00 0.00 0.00 100 1018.5
20260902103104 62 42 1.0 4.0 0.00 0.00 0.00 100 1018.3
20260902101556 61 51 2.0 4.0 0.00 0.00 0.00 100 1018.1
20260902100100 61 92 2.0 4.0 0.00 0.00 0.00 100 1018.1
20260902094559 62 27 3.0 5.0 0.00 0.00 0.00 100 1017.9
20260902093057 62 82 1.0 4.0 0.00 0.00 0.00 100 1017.5
20260902091606 62 47 0.0 3.0 0.00 0.00 0.00 100 1017.4
20260902090104 62 252 0.0 1.0 0.00 0.00 0.00 100 1017.2
20260902084605 62 253 0.0 2.0 0.00 0.00 0.00 100 1017.0
20260902083113 62 253 0.0 1.0 0.00 0.00 0.00 100 1016.8
20260902081557 62 253 0.0 0.0 0.00 0.00 0.00 100 1016.8
20260902080058 62 253 0.0 1.0 0.00 0.00 0.00 100 1016.8
20260902074609 62 253 0.0 0.0 0.00 0.00 0.00 100 1016.7
20260902073058 62 253 0.0 1.0 0.00 0.00 0.00 100 1016.5
20260902071557 61 253 1.0 2.0 0.00 0.00 0.00 100 1016.6
20260902070056 61 253 0.0 2.0 0.00 0.00 0.00 100 1016.5
20260902064557 61 252 0.0 0.0 0.00 0.00 0.00 100 1016.7
20260902063057 62 252 0.0 0.0 0.00 0.00 0.00 100 1016.6
20260902061557 62 252 0.0 0.0 0.00 0.00 0.00 100 1016.7
20260902060105 62 252 0.0 0.0 0.00 0.00 0.00 100 1016.8
20260902054607 62 252 0.0 0.0 0.00 0.00 0.00 100 1016.9
20260902053111 62 252 0.0 0.0 0.00 0.00 0.00 100 1016.8
20260902051609 62 252 0.0 0.0 0.00 0.00 0.00 100 1016.8
20260902050100 62 252 0.0 0.0 0.00 0.00 0.00 100 1016.8
20260902044556 62 252 0.0 0.0 0.00 0.00 0.00 100 1017.0
20260902043117 62 252 0.0 0.0 0.00 0.00 0.00 100 1017.0
20260902041557 62 252 0.0 1.0 0.00 0.00 0.00 100 1017.1
20260902040056 62 252 0.0 2.0 0.00 0.00 0.00 100 1017.0
20260902040001 62 252 0.0 2.0 0.00 0.00 0.00 100 1017.0
20260902034558 62 252 0.0 1.0 0.00 0.00 0.00 100 1016.9
20260902033058 62 252 0.0 2.0 0.00 0.00 0.00 100 1016.8
20260902031558 62 252 0.0 2.0 0.00 0.00 0.00 100 1016.6
20260902030057 61 252 0.0 1.0 0.00 0.00 0.00 100 1016.6
20260902030002 62 251 0.0 1.0 0.00 0.00 0.00 100 1016.6
20260902024559 61 252 0.0 2.0 0.00 0.01 0.00 100 1016.5
20260902023108 61 252 1.0 3.0 0.00 0.01 0.00 100 1016.3
20260902021603 61 249 0.0 2.0 0.00 0.01 0.00 100 1016.2
20260902020058 61 259 0.0 3.0 0.00 0.01 0.00 100 1016.1
20260902020000 61 259 0.0 3.0 0.00 0.01 0.00 100 1016.1
20260902014558 62 50 0.0 1.0 0.00 0.04 0.00 100 1015.8
20260902013057 62 50 0.0 2.0 0.00 0.04 0.00 100 1015.6
20260902011630 62 50 1.0 2.0 0.00 0.04 0.00 100 1015.2
20260902010057 63 50 0.0 1.0 0.00 0.04 0.00 100 1014.8
20260902004558 63 50 0.0 2.0 0.00 0.20 0.00 100 1014.6
20260902003105 63 134 1.0 3.0 0.00 0.20 0.00 100 1014.6
20260902001559 63 134 0.0 3.0 0.00 0.20 0.00 100 1014.5
20260901234605 64 197 1.0 3.0 0.00 0.35 0.00 100 1014.3
20260901233103 64 209 0.0 2.0 0.00 0.35 0.00 100 1014.1
20260901231613 64 208 0.0 2.0 0.00 0.35 0.00 100 1013.9
20260901230110 64 208 0.0 1.0 0.00 0.35 0.00 100 1013.6
20260901224558 65 208 0.0 3.0 0.00 0.48 0.00 100 1013.3
20260901223057 65 304 1.0 4.0 0.00 0.48 0.00 100 1012.6
20260901221624 65 250 0.0 0.0 0.00 0.48 0.00 100 1012.1
20260901220115 66 250 0.0 2.0 0.00 0.48 0.00 100 1011.8
20260901214557 66 250 0.0 1.0 0.00 0.50 0.00 100 1011.4
20260901213108 67 250 0.0 1.0 0.00 0.50 0.00 100 1011.3
20260901211558 68 250 0.0 0.0 0.00 0.50 0.00 100 1010.9
20260901210106 68 250 0.0 1.0 0.00 0.50 0.00 100 1010.8
20260901204611 70 250 0.0 2.0 0.00 0.68 0.00 100 1010.7
20260901203101 72 250 1.0 4.0 0.00 0.68 0.00 100 1010.5
20260901201559 74 32 1.0 3.0 0.00 0.68 0.00 100 1010.3
20260901200117 74 33 0.0 3.0 0.00 0.68 0.00 100 1010.2
20260901200002 74 33 0.0 3.0 0.00 0.68 0.00 100 1010.2
20260901194609 74 33 0.0 6.0 0.00 0.73 0.00 100 1010.0
20260901193059 73 45 1.0 7.0 0.00 0.73 0.00 100 1009.7
20260901191635 74 25 2.0 10.0 0.00 0.73 0.00 100 1009.5
20260901190106 74 74 3.0 6.0 0.00 0.73 0.00 100 1009.2
20260901190003 74 53 3.0 6.0 0.00 0.73 0.00 100 1009.2
20260901184557 76 94 3.0 7.0 0.00 0.77 0.00 100 1008.9
20260901183101 77 30 1.0 5.0 0.00 0.77 0.00 100 1008.7
20260901181616 77 18 1.0 5.0 0.00 0.77 0.00 100 1008.4
20260901180057 76 1 1.0 2.0 0.00 0.77 0.00 100 1008.3
20260901174557 74 1 1.0 3.0 0.00 0.86 0.00 100 1008.3
20260901173059 74 117 1.0 3.0 0.00 0.86 0.00 100 1008.4
20260901171604 74 91 0.0 4.0 0.00 0.86 0.00 100 1008.3
20260901170101 74 96 1.0 3.0 0.00 0.86 0.00 100 1008.4
20260901164617 74 150 1.0 5.0 0.00 0.93 0.00 100 1008.5
20260901163057 75 82 1.0 4.0 0.00 0.93 0.00 100 1008.5
20260901161558 74 82 1.0 4.0 0.00 0.93 0.00 100 1008.6
20260901160110 75 80 3.0 8.0 0.00 0.93 0.00 100 1008.7
20260901154558 75 86 3.0 5.0 0.00 0.94 0.00 100 1009.0
20260901153112 74 120 2.0 7.0 0.00 0.94 0.00 100 1008.9
20260901151557 74 18 2.0 7.0 0.00 0.94 0.00 100 1008.9
20260901150111 74 49 3.0 6.0 0.00 0.94 0.00 100 1008.7
20260901144600 74 72 3.0 7.0 0.00 0.96 0.00 100 1008.8
20260901143118 72 304 1.0 6.0 0.00 0.96 0.00 100 1008.7
20260901141607 73 103 4.0 8.0 0.00 0.96 0.00 100 1008.7
20260901140132 74 22 1.0 3.0 0.00 0.96 0.00 100 1009.0
20260901134557 72 17 2.0 4.0 0.00 1.08 0.00 100 1008.9
20260901133057 71 236 1.0 2.0 0.00 1.08 0.00 100 1008.8
20260901131559 70 235 0.0 5.0 0.00 1.08 0.00 100 1008.8